Location: Bannatyne
(13.0833°N, 59.5333°W)
Time: 23:08:15
(UTC+00:00)

Vanguard 3 - All Passes

Search period start: 24 January 2020 00:00
Search period end: 03 February 2020 00:00
Orbit: 507 x 3263 km, 33.4° (Epoch: 24 January)

Date Brightness Start Highest point End Pass type
(mag) Time Alt. Az. Time Alt. Az. Time Alt. Az.
24 Jan - 00:51:48 10° WNW 01:06:19 31° N 01:16:01 10° ENE visible
24 Jan - 03:11:44 10° NW 03:23:18 41° NNE 03:30:01 10° E visible
24 Jan - 05:28:21 10° WNW 05:36:30 58° SW 05:41:18 10° SE night (unlit)
24 Jan - 16:43:34 10° SSW 16:55:03 31° SE 17:10:28 10° E daylight
24 Jan - 18:54:04 10° SW 19:10:33 80° SE 19:30:41 10° ENE daylight
24 Jan - 21:10:01 10° W 21:28:52 55° NNW 21:46:18 10° NE daylight
24 Jan - 23:31:44 10° WNW 23:48:38 35° N 00:00:57 10° NE visible
25 Jan - 01:53:45 10° NW 02:07:15 35° N 02:15:35 10° ENE visible
25 Jan - 04:11:33 10° NW 04:22:26 74° NNE 04:28:23 10° ESE night (unlit)
25 Jan - 06:29:33 10° W 06:33:40 17° SW 06:36:49 10° S night (unlit)
25 Jan - 15:33:02 10° SSE 15:39:33 15° SE 15:47:31 10° ESE daylight
25 Jan - 17:39:51 10° SW 17:53:49 56° SE 18:13:00 10° ENE daylight
25 Jan - 19:53:04 10° WSW 20:10:47 71° NNW 20:30:20 10° NE daylight
25 Jan - 22:12:03 10° W 22:30:20 42° NNW 22:45:32 10° NE visible
26 Jan - 00:34:40 10° WNW 00:50:12 34° N 01:00:37 10° ENE visible
26 Jan - 02:54:18 10° NW 03:07:21 50° NNE 03:14:42 10° E visible
26 Jan - 05:11:39 10° WNW 05:20:22 47° SW 05:25:31 10° SSE night (unlit)
26 Jan - 16:26:55 10° SSW 16:37:59 35° SE 16:53:44 10° ENE daylight
26 Jan - 18:37:37 10° SW 18:53:13 88° SE 19:13:36 10° ENE daylight
26 Jan - 20:53:38 10° W 21:11:50 51° NNW 21:29:43 10° NE daylight
26 Jan - 23:14:59 10° WNW 23:32:15 36° N 23:45:12 10° ENE visible
27 Jan - 01:36:18 10° NW 01:51:13 40° NNE 02:00:18 10° E visible
27 Jan - 03:54:20 10° WNW 04:06:22 89° NE 04:12:49 10° ESE night (unlit)
27 Jan - 06:13:52 10° W 06:17:27 14° SW 06:20:20 10° SSW night (unlit)
27 Jan - 15:15:57 10° S 15:22:51 17° SE 15:31:45 10° E daylight
27 Jan - 17:23:25 10° SW 17:36:34 63° SE 17:55:52 10° ENE daylight
27 Jan - 19:36:45 10° WSW 19:53:35 65° NNW 20:13:22 10° NE daylight
27 Jan - 21:55:37 10° WNW 22:13:39 40° NNW 22:29:20 10° NE visible
28 Jan - 00:17:30 10° NW 00:34:01 37° N 00:45:12 10° ENE visible
28 Jan - 02:36:49 10° NW 02:51:16 60° NNE 02:59:16 10° ESE visible
28 Jan - 04:54:55 10° WNW 05:04:08 39° SW 05:09:37 10° SSE night (unlit)
28 Jan - 16:10:26 10° SSW 16:20:58 39° SE 16:36:50 10° ENE daylight
28 Jan - 18:21:20 10° WSW 18:36:01 85° NNW 18:56:23 10° NE daylight
28 Jan - 20:37:24 10° W 20:54:55 48° NNW 21:13:04 10° NE daylight
28 Jan - 22:58:14 10° WNW 23:15:50 37° N 23:29:27 10° ENE visible
29 Jan - 01:18:49 10° NW 01:35:03 46° NNE 01:44:55 10° E visible
29 Jan - 03:37:05 10° WNW 03:50:08 78° SW 03:57:08 10° SE visible
29 Jan - 05:58:28 10° WSW 06:01:11 12° SW 06:03:30 10° SSW night (unlit)
29 Jan - 14:59:08 10° S 15:06:09 20° SE 15:15:39 10° E daylight
29 Jan - 17:07:09 10° SW 17:19:27 70° SE 17:38:36 10° ENE daylight
29 Jan - 19:20:36 10° WSW 19:36:33 60° NNW 19:56:19 10° NE daylight
29 Jan - 21:39:16 10° WNW 21:57:01 39° N 22:13:09 10° NE daylight
30 Jan - 00:00:17 10° NW 00:17:43 40° N 00:29:43 10° ENE visible
30 Jan - 02:19:18 10° NW 02:35:02 70° NNE 02:43:43 10° ESE visible
30 Jan - 04:38:12 10° WNW 04:47:46 34° SW 04:53:38 10° SSE night (unlit)
30 Jan - 15:54:06 10° SSW 16:04:00 43° SE 16:19:46 10° ENE daylight
30 Jan - 18:05:12 10° WSW 18:18:57 77° NNW 18:39:04 10° NE daylight
30 Jan - 20:21:17 10° W 20:38:05 45° NNW 20:56:22 10° NE daylight
30 Jan - 22:41:30 10° WNW 22:59:23 38° N 23:13:42 10° ENE visible
31 Jan - 01:01:18 10° NW 01:18:45 53° NNE 01:29:25 10° E visible
31 Jan - 03:19:49 10° WNW 03:33:44 67° SW 03:41:21 10° SE visible
31 Jan - 05:44:09 10° SW 05:44:52 10° SW 05:45:34 10° SW night (unlit)
31 Jan - 14:42:32 10° S 14:49:27 22° SE 14:59:18 10° E daylight
31 Jan - 16:51:01 10° SW 17:02:27 78° SE 17:21:13 10° ENE daylight
31 Jan - 19:04:37 10° W 19:19:38 55° NNW 19:39:12 10° NE daylight
31 Jan - 21:22:58 10° WNW 21:40:25 39° N 21:56:57 10° ENE daylight
31 Jan - 23:43:04 10° NW 00:01:18 44° NNE 00:14:09 10° E visible
01 Feb - 02:01:46 10° NW 02:18:38 80° NNE 02:28:03 10° ESE visible
01 Feb - 04:21:29 10° WNW 04:31:19 29° SW 04:37:33 10° SSE night (unlit)
01 Feb - 15:37:55 10° SSW 15:47:08 49° SE 16:02:37 10° ENE daylight
01 Feb - 17:49:14 10° WSW 18:02:03 70° NNW 18:21:41 10° NE daylight
01 Feb - 20:05:17 10° W 20:21:22 43° NNW 20:39:40 10° NE daylight
01 Feb - 22:24:45 10° WNW 22:42:52 40° N 22:57:53 10° ENE visible
02 Feb - 00:43:48 10° NW 01:02:16 60° NNE 01:13:47 10° ESE visible
02 Feb - 03:02:32 10° WNW 03:17:12 58° SW 03:25:28 10° SE visible
02 Feb - 14:26:07 10° S 14:32:49 25° SE 14:42:48 10° E daylight
02 Feb - 16:35:01 10° SW 16:45:37 86° SE 17:03:46 10° ENE daylight
02 Feb - 18:48:45 10° W 19:02:53 50° NNW 19:22:02 10° NE daylight
02 Feb - 21:06:43 10° WNW 21:23:49 39° N 21:40:44 10° ENE daylight
